Location: Observatory Park - Geauga Park District
(41.5832°N, 81.0716°W)
Time: 14:18:53
(UTC-04:00)

N. Korean satellite - Pass Details

Date: 06 October 2021
Orbit: 450 x 495 km, 97.3° (Epoch: 17 October)

Event Time Altitude Azimuth Distance (km) Brightness Sun altitude
Rises 06:54:28 0° 8° (N) 2,563 10.3 -6.9°
Reaches altitude 10° 06:56:33 10° 5° (N) 1,683 9.4 -6.5°
Maximum altitude 07:00:07 61° 285° (WNW) 564 6.6 -5.8°
Drops below altitude 10° 07:03:42 10° 204° (SSW) 1,684 9.1 -5.1°
Sets 07:05:47 0° 201° (SSW) 2,563 10.0 -4.7°
